DW8572 Weather Reports


Display with metric or nautical units.
time (UTC)temp
F
wind
direction
speed
MPH
gust
MPH
rain 1hr
in
rain 24hr
in
rain mn
in
humidity
%
barometer
mb
20260903001525 85 216 0.0 0.0 0.00 0.00 0.00 78 1011.8
20260903000023 86 216 0.0 0.0 0.00 0.00 0.00 76 1011.8
20260902234518 87 216 0.0 0.0 0.00 0.00 0.00 74 1011.9
20260902233018 88 216 0.0 0.0 0.00 0.00 0.00 72 1012.0
20260902231523 89 216 0.0 0.0 0.00 0.00 0.00 70 1012.0
20260902230016 90 216 0.0 0.0 0.00 0.00 0.00 69 1011.9
20260902224516 90 216 0.0 0.0 0.00 0.00 0.00 68 1011.9
20260902223014 91 216 0.0 0.0 0.00 0.00 0.00 66 1012.0
20260902221518 91 215 0.0 0.0 0.00 0.00 0.00 65 1012.0
20260902220015 92 215 0.0 0.0 0.00 0.00 0.00 65 1012.0
20260902214513 92 214 0.0 0.0 0.00 0.00 0.00 64 1011.9
20260902213012 92 211 0.0 0.0 0.00 0.00 0.00 67 1012.0
20260902211512 92 210 0.0 0.0 0.00 0.00 0.00 66 1012.0
20260902210010 92 204 0.0 0.0 0.00 0.00 0.00 66 1012.1
20260902204510 92 211 0.0 0.0 0.00 0.00 0.00 66 1012.3
20260902203007 92 211 0.0 0.0 0.00 0.00 0.00 65 1012.4
20260902201509 91 205 0.0 0.0 0.00 0.00 0.00 67 1012.5
20260902200007 91 197 0.0 0.0 0.00 0.00 0.00 67 1012.5
20260902194504 91 201 0.0 0.0 0.00 0.00 0.00 66 1012.7
20260902193002 92 209 0.0 0.0 0.00 0.00 0.00 67 1012.9
20260902191603 91 211 0.0 0.0 0.00 0.00 0.00 65 1013.0
20260902190125 91 207 0.0 0.0 0.00 0.00 0.00 67 1013.1
20260902184607 91 199 0.0 0.0 0.00 0.00 0.00 67 1013.1
20260902183056 91 209 0.0 0.0 0.00 0.00 0.00 66 1013.3
20260902181608 90 200 0.0 0.0 0.00 0.00 0.00 68 1013.4
20260902180052 90 213 0.0 0.0 0.00 0.00 0.00 68 1013.6
20260902174552 90 199 0.0 0.0 0.00 0.00 0.00 70 1013.8
20260902173051 90 207 0.0 0.0 0.00 0.00 0.00 70 1013.9
20260902171610 90 227 0.0 0.0 0.00 0.00 0.00 71 1014.1
20260902170051 90 227 0.0 0.0 0.00 0.00 0.00 70 1014.1
20260902164548 90 227 0.0 0.0 0.00 0.00 0.00 66 1014.2
20260902163047 89 227 0.0 0.0 0.00 0.00 0.00 67 1014.5
20260902161548 89 227 0.0 0.0 0.00 0.00 0.00 69 1014.5
20260902160044 88 227 0.0 0.0 0.00 0.00 0.00 71 1014.6
20260902154539 87 227 0.0 0.0 0.00 0.00 0.00 72 1014.7
20260902153036 86 227 0.0 0.0 0.00 0.00 0.00 71 1014.6
20260902151535 86 227 0.0 0.0 0.00 0.00 0.00 73 1014.6
20260902150031 85 227 0.0 0.0 0.00 0.00 0.00 74 1014.6
20260902144531 84 227 0.0 0.0 0.00 0.01 0.00 75 1014.6
20260902143026 83 227 0.0 0.0 0.00 0.01 0.00 76 1014.4
20260902141530 82 227 0.0 0.0 0.00 0.01 0.00 80 1014.4
20260902140017 81 227 0.0 0.0 0.00 0.01 0.00 81 1014.4
20260902134521 80 227 0.0 0.0 0.00 0.07 0.00 83 1014.6
20260902133011 78 227 0.0 0.0 0.00 0.07 0.00 87 1014.6
20260902131510 77 227 0.0 0.0 0.00 0.07 0.00 87 1014.8
20260902130009 76 227 0.0 0.0 0.00 0.07 0.00 89 1014.7
20260902124511 75 227 0.0 0.0 0.00 0.08 0.00 90 1014.6
20260902123008 74 227 0.0 0.0 0.00 0.08 0.00 92 1014.7
20260902121509 73 227 0.0 0.0 0.00 0.08 0.00 92 1014.7
20260902120007 72 227 0.0 0.0 0.00 0.08 0.00 92 1014.6
20260902114506 72 227 0.0 0.0 0.00 0.08 0.00 92 1014.6
20260902113013 72 227 0.0 0.0 0.00 0.08 0.00 92 1014.6
20260902111504 72 227 0.0 0.0 0.00 0.08 0.00 92 1014.5
20260902110004 72 227 0.0 0.0 0.00 0.08 0.00 92 1014.3
20260902104502 72 227 0.0 0.0 0.00 0.08 0.00 92 1014.2
20260902103001 72 227 0.0 0.0 0.00 0.08 0.00 92 1014.1
20260902101600 72 227 0.0 0.0 0.00 0.08 0.00 92 1014.0
20260902100058 72 227 0.0 0.0 0.00 0.08 0.00 92 1013.9
20260902094558 72 227 0.0 0.0 0.00 0.08 0.00 92 1013.9
20260902093055 72 227 0.0 0.0 0.00 0.08 0.00 92 1013.8
20260902091555 72 227 0.0 0.0 0.00 0.08 0.00 92 1013.7
20260902090052 73 227 0.0 0.0 0.00 0.08 0.00 91 1013.8
20260902084551 73 227 0.0 0.0 0.00 0.08 0.00 91 1013.7
20260902083050 73 227 0.0 0.0 0.00 0.08 0.00 91 1013.7
20260902081554 74 227 0.0 0.0 0.00 0.08 0.00 91 1013.8
20260902080046 74 227 0.0 0.0 0.00 0.08 0.00 91 1013.6
20260902074605 75 227 0.0 0.0 0.00 0.08 0.00 91 1013.7
20260902073043 75 227 0.0 0.0 0.00 0.08 0.00 91 1013.5
20260902071543 75 227 0.0 0.0 0.00 0.08 0.00 91 1013.5
20260902070041 75 227 0.0 0.0 0.00 0.08 0.00 91 1013.5
20260902064540 76 227 0.0 0.0 0.00 0.08 0.00 90 1013.4
20260902063059 76 227 0.0 0.0 0.00 0.08 0.00 91 1013.5
20260902061537 76 227 0.0 0.0 0.00 0.08 0.00 90 1013.6
20260902060049 76 227 0.0 0.0 0.00 0.08 0.00 90 1013.6
20260902054535 77 227 0.0 0.0 0.00 0.08 0.00 90 1013.6
20260902053034 77 227 0.0 0.0 0.00 0.08 0.00 90 1013.7
20260902051544 77 227 0.0 0.0 0.00 0.08 0.00 90 1013.7
20260902050033 77 227 0.0 0.0 0.00 0.08 0.00 90 1013.7
20260902044531 77 227 0.0 0.0 0.00 0.08 0.00 89 1013.6
20260902043029 78 227 0.0 0.0 0.00 0.08 0.00 89 1013.6
20260902041541 78 227 0.0 0.0 0.00 0.08 0.00 88 1013.5
20260902040026 79 227 0.0 0.0 0.00 0.08 0.00 87 1013.4
20260902034523 79 227 0.0 0.0 0.00 0.08 0.08 88 1013.4
20260902033023 79 227 0.0 0.0 0.00 0.08 0.08 88 1013.4
20260902031522 79 227 0.0 0.0 0.00 0.08 0.08 88 1013.4
20260902030022 79 227 0.0 0.0 0.00 0.08 0.08 89 1013.4
20260902024521 79 227 0.0 0.0 0.00 0.08 0.08 88 1013.4
20260902023021 79 227 0.0 0.0 0.00 0.08 0.08 87 1013.5
20260902021524 80 227 0.0 0.0 0.00 0.08 0.08 87 1013.5
20260902020020 80 227 0.0 0.0 0.00 0.08 0.08 86 1013.4
20260902014526 81 227 0.0 0.0 0.00 0.08 0.08 86 1013.5
20260902013020 82 227 0.0 0.0 0.00 0.08 0.08 85 1013.5
20260902011521 82 227 0.0 0.0 0.00 0.08 0.08 84 1013.4
20260902010018 82 227 0.0 0.0 0.00 0.08 0.08 84 1013.3
20260902004527 83 227 0.0 0.0 0.00 0.08 0.08 83 1013.3
20260902003050 84 227 0.0 0.0 0.00 0.08 0.08 83 1013.2